Denver, CO

4:52 PM MDT on June 27, 2017 (GMT -0600)
Front Range

Weather History for KFTG - January, 2012

Change the Weather History Date:

Sunday, January 29, 2012

  Actual Average (KBKF) Record (KBKF)
Temperature  
Mean Temperature 42 °F -  
Max Temperature 53 °F 42 °F 59 °F (2011)
Min Temperature 30 °F 21 °F 6 °F (2000)
Degree Days  
Heating Degree Days 24    
Moisture  
Dew Point 14 °F    
Average Humidity 35    
Maximum Humidity 52    
Minimum Humidity 22    
Precipitation  
Precipitation 0.00 in - - ()
Sea Level Pressure  
Sea Level Pressure 30.15 in    
Wind  
Wind Speed 12 mph (WSW)    
Max Wind Speed 18 mph    
Max Gust Speed 24 mph    
Visibility 10 miles    
Events      
Averages and records for this station are not official NWS values.
T = Trace of Precipitation, MM = Missing Value Source: NWS Daily Summary

Daily Weather History Graph

Daily Weather History Graph

Search for Another Location

Airport or City:

Trip Planner

Search our weather history database for the weather conditions in past years. The results will help you decide how hot, cold, wet, or windy it might be!

Date:

Astronomy

Jan. 29, 2012 Rise Set
Actual Time 7:09 AM MST 5:13 PM MST
Civil Twilight 6:40 AM MST 5:42 PM MST
Nautical Twilight 6:08 AM MST 6:14 PM MST
Astronomical Twilight 5:36 AM MST 6:46 PM MST
Moon 10:02 AM MST (1/29) No Moon Set
Length of Visible Light 11h 01m
Length of Day
10h 04m
Waxing Crescent, 37% of the Moon is Illuminated
Jan 29
Waxing Crescent
Jan 30
First Quarter
Feb 7
Full
Feb 14
Last Quarter
Feb 21
New

Hourly Weather History & Observations

Time (MST) Temp. Windchill Dew Point Humidity Pressure Visibility Wind Dir Wind Speed Gust Speed Precip Events Conditions
12:02 AM 35.6 °F 27.1 °F 3.2 °F 26% 30.16 in 10.0 mi West 12.7 mph 24.2 mph N/A   Clear
12:21 AM 32.0 °F 23.0 °F 5.0 °F 32% 30.16 in 10.0 mi West 11.5 mph - N/A   Clear
12:41 AM 32.0 °F 24.8 °F 5.0 °F 32% 30.16 in 10.0 mi West 8.1 mph - N/A   Clear
1:02 AM 32.0 °F 23.6 °F 6.8 °F 35% 30.16 in 10.0 mi West 10.4 mph - N/A   Clear
1:22 AM 30.2 °F 21.9 °F 5.0 °F 34% 30.16 in 10.0 mi West 9.2 mph - N/A   Clear
2:02 AM 32.0 °F 23.6 °F 6.8 °F 35% 30.18 in 10.0 mi WSW 10.4 mph - N/A   Clear
2:21 AM 30.2 °F 22.6 °F 8.6 °F 40% 30.18 in 10.0 mi SW 8.1 mph - N/A   Clear
2:42 AM 30.2 °F 21.3 °F 8.6 °F 40% 30.18 in 10.0 mi WSW 10.4 mph - N/A   Clear
3:02 AM 32.0 °F 24.2 °F 8.6 °F 38% 30.18 in 10.0 mi SW 9.2 mph - N/A   Clear
3:22 AM 32.0 °F 23.0 °F 8.6 °F 38% 30.18 in 10.0 mi WSW 11.5 mph - N/A   Clear
3:42 AM 30.2 °F 19.3 °F 10.4 °F 44% 30.17 in 10.0 mi West 15.0 mph - N/A   Clear
4:02 AM 32.0 °F 20.8 °F 8.6 °F 38% 30.16 in 10.0 mi West 17.3 mph - N/A   Clear
4:22 AM 33.8 °F 25.3 °F 10.4 °F 38% 30.16 in 10.0 mi WSW 11.5 mph - N/A   Clear
4:42 AM 32.0 °F 22.5 °F 12.2 °F 44% 30.16 in 10.0 mi WSW 12.7 mph - N/A   Clear
5:02 AM 30.2 °F 20.8 °F 12.2 °F 47% 30.16 in 10.0 mi WSW 11.5 mph - N/A   Clear
5:22 AM 32.0 °F 23.6 °F 8.6 °F 38% 30.16 in 10.0 mi SW 10.4 mph - N/A   Clear
5:42 AM 32.0 °F 22.5 °F 10.4 °F 41% 30.17 in 10.0 mi WSW 12.7 mph - N/A   Clear
6:02 AM 32.0 °F 22.1 °F 12.2 °F 44% 30.17 in 10.0 mi WSW 13.8 mph - N/A   Clear
6:22 AM 32.0 °F 24.2 °F 12.2 °F 44% 30.18 in 10.0 mi WSW 9.2 mph - N/A   Clear
6:41 AM 32.0 °F 22.5 °F 12.2 °F 44% 30.18 in 10.0 mi WSW 12.7 mph - N/A   Clear
7:01 AM 32.0 °F 23.6 °F 14.0 °F 48% 30.19 in 10.0 mi WSW 10.4 mph - N/A   Clear
7:21 AM 33.8 °F 25.8 °F 14.0 °F 44% 30.20 in 10.0 mi WSW 10.4 mph - N/A   Clear
7:42 AM 32.0 °F 22.5 °F 14.0 °F 48% 30.20 in 10.0 mi West 12.7 mph - N/A   Clear
8:02 AM 35.6 °F 26.6 °F 14.0 °F 41% 30.20 in 10.0 mi WSW 13.8 mph 17.3 mph N/A   Clear
8:22 AM 37.4 °F 29.3 °F 12.2 °F 36% 30.20 in 10.0 mi WSW 12.7 mph - N/A   Clear
8:42 AM 37.4 °F 30.8 °F 14.0 °F 38% 30.20 in 10.0 mi WSW 9.2 mph - N/A   Clear
9:02 AM 41.0 °F 35.8 °F 15.8 °F 36% 30.20 in 10.0 mi WSW 8.1 mph - N/A   Clear
9:22 AM 42.8 °F 38.0 °F 15.8 °F 34% 30.20 in 10.0 mi SW 8.1 mph - N/A   Clear
9:41 AM 46.4 °F 40.7 °F 15.8 °F 29% 30.20 in 10.0 mi West 12.7 mph - N/A   Clear
10:02 AM 46.4 °F 40.4 °F 17.6 °F 32% 30.20 in 10.0 mi West 13.8 mph 19.6 mph N/A   Clear
10:22 AM 50.0 °F - 17.6 °F 28% 30.20 in 10.0 mi West 13.8 mph - N/A   Clear
10:42 AM 50.0 °F - 17.6 °F 28% 30.20 in 10.0 mi West 15.0 mph - N/A   Clear
11:02 AM 51.8 °F - 14.0 °F 22% 30.20 in 10.0 mi West 17.3 mph 23.0 mph N/A   Clear
11:22 AM 53.6 °F - 15.8 °F 22% 30.20 in 10.0 mi WSW 17.3 mph - N/A   Clear
11:42 AM 53.6 °F - 17.6 °F 24% 30.18 in 10.0 mi West 17.3 mph - N/A   Clear
12:02 PM 53.6 °F - 17.6 °F 24% 30.17 in 10.0 mi West 17.3 mph 20.7 mph N/A   Clear
12:22 PM 51.8 °F - 17.6 °F 26% 30.16 in 10.0 mi WSW 17.3 mph - N/A   Clear
12:42 PM 51.8 °F - 17.6 °F 26% 30.15 in 10.0 mi West 16.1 mph - N/A   Clear
1:02 PM 51.8 °F - 17.6 °F 26% 30.15 in 10.0 mi West 18.4 mph - N/A   Clear
1:22 PM 51.8 °F - 15.8 °F 24% 30.13 in 10.0 mi West 16.1 mph 21.9 mph N/A   Clear
2:02 PM 53.6 °F - 15.8 °F 22% 30.13 in 10.0 mi SW 12.7 mph - N/A   Clear
2:22 PM 53.6 °F - 17.6 °F 24% 30.12 in 10.0 mi West 11.5 mph 20.7 mph N/A   Clear
2:42 PM 51.8 °F - 17.6 °F 26% 30.12 in 10.0 mi West 15.0 mph - N/A   Clear
3:01 PM 51.8 °F - 17.6 °F 26% 30.12 in 10.0 mi West 10.4 mph - N/A   Clear
3:22 PM 50.0 °F - 17.6 °F 28% 30.12 in 10.0 mi WNW 10.4 mph - N/A   Clear
3:42 PM 48.2 °F - 19.4 °F 32% 30.12 in 10.0 mi WNW 9.2 mph - N/A   Clear
4:02 PM 46.4 °F 41.5 °F 17.6 °F 32% 30.11 in 10.0 mi West 10.4 mph - N/A   Clear
4:22 PM 44.6 °F 40.2 °F 17.6 °F 34% 30.11 in 10.0 mi West 8.1 mph - N/A   Clear
4:42 PM 44.6 °F 41.4 °F 17.6 °F 34% 30.10 in 10.0 mi SW 5.8 mph - N/A   Clear
5:02 PM 44.6 °F 40.2 °F 17.6 °F 34% 30.10 in 10.0 mi SSW 8.1 mph - N/A   Clear
5:22 PM 44.6 °F 39.7 °F 15.8 °F 31% 30.10 in 10.0 mi SSW 9.2 mph - N/A   Clear
5:42 PM 42.8 °F 37.5 °F 17.6 °F 36% 30.10 in 10.0 mi South 9.2 mph - N/A   Clear
6:02 PM 37.4 °F 29.8 °F 19.4 °F 48% 30.10 in 10.0 mi SSW 11.5 mph - N/A   Clear
6:22 PM 44.6 °F 39.7 °F 17.6 °F 34% 30.10 in 10.0 mi SW 9.2 mph - N/A   Clear
6:42 PM 42.8 °F 38.0 °F 17.6 °F 36% 30.09 in 10.0 mi SSW 8.1 mph - N/A   Clear
7:02 PM 37.4 °F 31.4 °F 21.2 °F 52% 30.09 in 10.0 mi South 8.1 mph - N/A   Clear
7:21 PM 37.4 °F 29.8 °F 21.2 °F 52% 30.08 in 10.0 mi SSW 11.5 mph - N/A   Clear
7:42 PM 42.8 °F 35.8 °F 19.4 °F 39% 30.07 in 10.0 mi SSW 13.8 mph - N/A   Clear
8:02 PM 41.0 °F 33.9 °F 19.4 °F 42% 30.06 in 10.0 mi SSW 12.7 mph - N/A   Clear
8:21 PM 42.8 °F 35.8 °F 19.4 °F 39% 30.06 in 10.0 mi SSW 13.8 mph - N/A   Clear
8:42 PM 42.8 °F 37.0 °F 19.4 °F 39% 30.06 in 10.0 mi SW 10.4 mph - N/A   Clear
9:02 PM 41.0 °F 33.5 °F 17.6 °F 39% 30.05 in 10.0 mi SSW 13.8 mph - N/A   Clear
9:22 PM 42.8 °F 36.2 °F 17.6 °F 36% 30.04 in 10.0 mi SSW 12.7 mph - N/A   Clear
9:42 PM 41.0 °F 34.3 °F 17.6 °F 39% 30.04 in 10.0 mi SW 11.5 mph - N/A   Clear
10:02 PM 41.0 °F 33.9 °F 19.4 °F 42% 30.04 in 10.0 mi SSW 12.7 mph - N/A   Clear
10:22 PM 42.8 °F 36.2 °F 17.6 °F 36% 30.04 in 10.0 mi SSW 12.7 mph - N/A   Clear
10:42 PM 42.8 °F 35.8 °F 17.6 °F 36% 30.03 in 10.0 mi SSW 13.8 mph - N/A   Clear
11:02 PM 41.0 °F 33.5 °F 19.4 °F 42% 30.04 in 10.0 mi SSW 13.8 mph - N/A   Clear
11:22 PM 41.0 °F 33.9 °F 17.6 °F 39% 30.03 in 10.0 mi SSW 12.7 mph - N/A   Clear
11:42 PM 41.0 °F 34.3 °F 17.6 °F 39% 30.03 in 10.0 mi SSW 11.5 mph - N/A   Clear